Location: Evergreen Manor
(41.4083°N, 81.4939°W)
Time: 20:11:00
(UTC+00:00)

Cosmos 1536 - Pass Details

Date: 11 December 2019
Orbit: 540 x 559 km, 82.5° (Epoch: 28 January)

Event Time Altitude Azimuth Distance (km) Brightness Sun altitude
Rises 11:28:59 0° 174° (S) 2,732 6.7 -13.2°
Reaches altitude 10° 11:31:12 10° 169° (SSE) 1,841 5.9 -12.8°
Maximum altitude 11:35:07 49° 93° (E) 723 3.9 -12.1°
Drops below altitude 10° 11:39:04 10° 19° (NNE) 1,853 5.5 -11.4°
Sets 11:41:17 0° 14° (NNE) 2,751 6.3 -11.0°
